Regional Weather Roundup
Issued by NWS Grand Forks, ND

Home | Current Version | Previous Version | Text Only | Print | Product List | Glossary Off
Versions: 1 2 3 4 5 6 7 8 9 10 11 12 13 14 15 16 17 18 19 20 21 22 23 24 25 26 27 28 29 30 31 32 33 34 35 36 37 38 39 40 41 42 43 44 45 46 47 48 49 50

000
ASUS43 KFGF 040410
RWRFGF
PRAIRIE TO PINES  WEATHER ROUNDUP
NATIONAL WEATHER SERVICE EASTERN NORTH DAKOTA/GRAND FORKS ND
1000 PM CST TUE MAR 03 2015

 **SATELLITE DATA USED TO AUGMENT SKY COVER AT AUTOMATED STATIONS**
 *****  WEATHER ACROSS EASTERN NORTH DAKOTA  *****

CITY           SKY/WX    TMP DP  RH WIND       PRES   REMARKS
GRAND FORKS    PTCLDY    -1  -8  72 W8        30.02R WCI -15
GRAND FRKS AFB CLEAR      0  -9  65 NW12      30.01R WCI -17
GRAND FRKS NWS   N/A      0 N/A N/A W6          N/A  WCI -12
DEVILS LAKE    CLEAR     -2 -11  65 W16       29.98R WCI -23
FARGO          CLEAR      2  -7  66 NW10      30.05R WCI -14
WAHPETON ARPT  CLEAR      3  -6  66 NW14      30.07R WCI -15
$$

 ***** WEATHER ACROSS CENTRAL AND WESTERN NORTH DAKOTA  *****

CITY           SKY/WX    TMP DP  RH WIND       PRES   REMARKS
BISMARCK       CLEAR      3  -5  69 NW6       30.07R WCI  -8
MINOT          PTCLDY    -2 -11  65 SW7       29.98S WCI -15
JAMESTOWN      CLEAR      0  -8  69 W13       30.02R WCI -18
MINOT AFB      PTCLDY    -3 -10  70 W12       29.98S WCI -21
GARRISON         N/A     -7 -13  75 W8        29.99F WCI -23
WILLISTON      PTCLDY     4  -4  69 N18G25    30.04R WCI -16
DICKINSON      MOCLDY     2  -6  69 W8        29.95S WCI -12
HETTINGER      CLEAR      0  -8  69 W6        30.00S WCI -12
$$

 *****  OTHER AIRPORT OBSERVATIONS IN OUR AREA  *****

CITY           SKY/WX    TMP DP  RH WIND       PRES   REMARKS
WALHALLA         N/A      0  -9  65 NW12G21   29.98S WCI -18
GRAFTON AIRPOR NOT AVBL
VALLEY CITY AR FAIR       0  -4  85 NW17      30.02R WCI -21
CANDO          FAIR      -4  -9  77 W15       29.98S WCI -25
CAVALIER APRT  FAIR       0  -9  65 W12       29.99R WCI -18
GWINNER        CLEAR      5  -6  61 W14       30.07R WCI -12
SHEYENNE NWR     N/A     -1  -9  68 W7        29.95  WCI -14
ROLLA          FAIR      -2 N/A N/A NW16      29.94R WCI -23
 ***** THE ABOVE OBSERVATIONS ARE NON NWS ARE NOT QUALITY
       CONTROLLED AND MAY MIS-REPORT RAIN FOR SNOW...
$$

  *****  WEATHER ACROSS NORTHERN MINNESOTA  *****

CITY           SKY/WX    TMP DP  RH WIND       PRES   REMARKS
FLAG ISLAND    PTCLDY    -4 -13  65 NW15      29.87R WCI -25
WARROAD        FAIR      -2  -9  71 W7        29.90R WCI -16
ROSEAU         CLEAR     -2  -9  71 W8        29.92R WCI -17
HALLOCK        NOT AVBL
THF RVR FALLS  PTCLDY     0  -6  78 W14       29.95R WCI -19
BAUDETTE       MOCLDY    -2  -8  76 W10       29.85R WCI -19
WASKISH        CLEAR     -2  -8  78 W12       29.89R WCI -20
CROOKSTON      PTCLDY     1  -8  66 NW15G23   30.01S WCI -18
$$
  *****  WEATHER ACROSS CENTRAL AND WEST MINNESOTA  *****

CITY           SKY/WX    TMP DP  RH WIND       PRES   REMARKS
FOSSTON        CLOUDY    -2  -9  71 W14       29.96R WCI -21
BEMIDJI        PTCLDY    -2  -9  73 W12       29.91R WCI -20
PARK RAPIDS    CLOUDY     1  -7  68 NW17      29.92R WCI -19
ELBOW LAKE     MOCLDY     2  -4  75 NW16G22   30.02S WCI -17
WADENA         MOCLDY     0  -6  78 NW14G23   29.96R WCI -19
DETROIT LAKES  CLEAR      1  -6  71 NW20      29.98R WCI -20
MOORHEAD       CLEAR      3  -4  72 NW12      30.06R WCI -13
FERGUS FALLS   CLEAR      1  -8  66 NW20      30.07R WCI -20
MORRIS MN      CLEAR      1  -6  71 NW16      30.03S WCI -18
STAPLES        PTCLDY     0  -8  71 W14G20    29.95R WCI -19
$$
  *****  WEATHER ELSEWHERE ACROSS MINNESOTA  *****

CITY           SKY/WX    TMP DP  RH WIND       PRES   REMARKS
DULUTH         CLEAR      5  -5  63 W14       29.79R WCI -12
INTRNTL FALLS  MOCLDY    -1  -9  68 W9G21     29.83R WCI -16
ELY            LGT SNOW   1  -2  85 W5        29.77R WCI  -8
CLOQUET        CLEAR      5  -8  56 W13G18    29.84R WCI -12
WHEATON        CLEAR      1  -8  66 W10       30.09R WCI -14
BRAINERD       PTCLDY     3  -4  72 W13       29.93R WCI -14
HIBBING        CLEAR      2 -10  57 W15G21    29.83R WCI -17
ALEXANDRIA     CLEAR      1  -7  68 NW17G26   29.98S WCI -19
SAINT CLOUD    PTCLDY     6  -4  63 W17       29.98R WCI -13
MINNEAPOLIS    CLEAR      9  -2  61 NW18G26   29.99R WCI -10
$$

  *****  WEATHER ACROSS SOUTH DAKOTA  *****

CITY           SKY/WX    TMP DP  RH WIND       PRES   REMARKS
SIOUX FALLS    MOCLDY     7   0  73 NW7       30.08R WCI  -5
BROOKINGS      NOT AVBL
WATERTOWN      CLEAR      2  -6  69 NW7       30.04R WCI -11
HURON          CLEAR     -1  -6  79 NW5       30.11R WCI -11
SISSETON         N/A      3  -6  66 NW16      30.06S WCI -16
ABERDEEN       PTCLDY     3  -6  66 NW7       30.10R WCI  -9
MITCHELL       PTCLDY     9   2  73 NW7       30.12R WCI  -2
PIERRE         CLEAR      5  -4  66 NW8       30.09R WCI  -8
MOBRIDGE       CLEAR      4  -2  76 NW3       30.04R
RAPID CITY     CLEAR      3  -5  69 W5        30.04R WCI  -6
$$

  *****  SOME WEATHER IN NEARBY STATES *****

CITY           SKY/WX    TMP DP  RH WIND       PRES   REMARKS
GLASGOW MT     PTCLDY     7  -4  60 NW14      30.08R WCI -10
GREAT FALLS MT PTCLDY     7  -5  57 W3        30.11R
CHEYENNE WY    CLOUDY     8   3  80 N8        29.87R WCI  -4
SCOTTSBLUFF NE CLOUDY    17   9  70 NW8       30.02R WCI   7
OMAHA NE       MOCLDY    19   8  62 N13       30.11R WCI   6
DES MOINES IA  MOCLDY    20  10  65 N15       30.05R WCI   6
DAVENPORT IA   CLOUDY    26  19  74 NW16      29.93R WCI  14
CHICAGO IL     CLOUDY    31  23  72 W10       29.85R WCI  22
EAU CLAIRE WI  CLEAR     13   2  61 NW16G25   29.90R WCI  -3
LA CROSSE WI   CLEAR     18   8  65 NW17G23   29.93R WCI   3
$$

  *****  SOME NATIONAL WEATHER *****

CITY           SKY/WX    TMP DP  RH WIND       PRES   REMARKS
LA GUARDIA NY  LGT RAIN  36  32  85 SW12G21   29.90F
RALEIGH NC     DRIZZLE   37  34  89 SW7       30.10F FOG
ATLANTA GA     FOG       50  48  93 SE5       30.10F VSB<1/4
NEW ORLEANS LA PTCLDY    69  65  86 SE9       30.01S
OKLAHOMA CITY  CLOUDY    50  40  68 N8        29.87R
ALBUQUERQUE NM PTCLDY    46  19  34 NW10      29.85R
SALT LAKE CITY MOCLDY    32  27  81 SE5       29.99R
LOS ANGELES CA PTCLDY    57  48  72 W12       29.93R
BOISE ID       CLEAR     34  14  43 NW6       30.05R
SEATTLE WA     CLEAR     44  18  35 N6        30.22F
$$

*** WEATHER ACROSS MANITOBA...SASKATCHEWAN AND ONTARIO ***
                ***ONTARIO***

CITY           SKY/WX    TMP DP  RH WIND       PRES   REMARKS
GERALDTON      FLURRIES   5  -2  72 W14G24    29.47R WCI -12
THUNDER BAY    PTCLDY     9  -4  56 W16G28    29.69R WCI  -9
SIOUX LOOKOUT  CLEAR     -6 -15  65 NW12G20   29.71R WCI -24
TORONTO        CLOUDY    34  28  80 W18G29    29.61R WCI  23
BIG TROUT LK   LGT SNOW  -4  -9  77 N12G20    29.55R WCI -22
PICKLE LAKE    NOT AVBL
DRYDEN         PTCLDY    -6 -15  65 NW13G23   29.74R WCI -25
KENORA         PTCLDY    -8 -15  71 NW8       29.81R WCI -23
$$
                *** MANITOBA***

CITY           SKY/WX    TMP DP  RH WIND       PRES   REMARKS
BRANDON        CLEAR     -9 -18  64 W15       29.97R WCI -31
DAUPHIN        MOCLDY    -8 -13  77 N12       30.02R WCI -27
ISLAND LAKE    NOT AVBL
PILOT MOUND      N/A     -6 -13  71 NW15        N/A  WCI -27
THE PAS        PTCLDY    -9 -17  70 NW13      30.04R WCI -30
THOMPSON       CLEAR     -9 -18  64 N12G21    30.01R WCI -29
WINNIPEG       PTCLDY    -9 -17  70 W9        29.98R WCI -27
LYNN LAKE      CLEAR    -13 -20  70 N12       30.08R WCI -33
CHURCHILL      CRYSTALS -15 -20  76 NW14G21   30.05F WCI -38
GILLAM         CLEAR    -15 -20  76 N12       29.96R WCI -36
$$
                ***SASKATCHEWAN***

CITY           SKY/WX    TMP DP  RH WIND       PRES   REMARKS
ESTEVAN        PTCLDY    -4 -13  65 NW13      30.01R WCI -23
KINDERSLEY     NOT AVBL
LLOYDMINSTER   CLEAR     -8 -18  59 N6        30.17R WCI -21
PRINCE ALBERT  CLEAR    -13 -24  58 NW6       30.18R WCI -27
REGINA         CLEAR     -9 -15  77 NW10      30.07R WCI -28
YORKTON        LGT SNOW  -9 -18  64 NW9       30.01R WCI -27
N. BATTLEFORD  CLEAR     -9 -18  64 N12       30.21R WCI -29
LA RONGE       CLEAR    -13 -24  58 NW5       30.21R WCI -25
SASKATOON      CLEAR    -11 -20  64 N12       30.18R WCI -31
SWIFT CURRENT  CLEAR     -6  -9  84 NW13      30.05R WCI -25
$$
NOTE: THESE ARE AUTOMATED STATIONS WITH LIMITED QUALITY CONTROL
      "FAIR" INDICATES FEW OR NO CLOUDS BELOW 12,000 FEET WITH NO
      SIGNIFICANT WEATHER AND/OR OBSTRUCTIONS TO VISIBILITY.
      SKY/WX - SKY CONDITION AND SIGNIFICANT WEATHER.
      TMP - AIR TEMPERATURE.    DP   - DEWPOINT TEMPERATURE.
      RH  - RELATIVE HUMIDITY.  PRES - PRESSURE.
      HX  - HEAT INDEX.         WCI  - WIND CHILL INDEX.
$


USA.gov is the U.S. government's official web portal to all federal, state and local government web resources and services.